Regional Weather Roundup
Issued by NWS Austin/San Antonio, TX

Home | Current Version | Previous Version | Text Only | Print | Product List | Glossary On
Versions: 1 2 3 4 5 6 7 8 9 10 11 12 13 14 15 16 17 18 19 20 21 22 23 24 25 26 27 28 29 30 31 32 33 34 35 36 37 38 39 40 41 42 43 44 45 46 47 48 49 50
861
ASUS44 KEWX 271110
RWREWX
SOUTH TEXAS REGIONAL WEATHER ROUNDUP
NATIONAL WEATHER SERVICE AUSTIN/SAN ANTONIO TX
600 AM CDT SUN MAY 27 2018

NOTE: "FAIR" INDICATED FEW OR NO CLOUDS BELOW 12,000 FEET WITH NO
SIGNIFICANT WEATHER AND/OR OBSTRUCTIONS TO VISIBILITY.

* - THESE STATIONS ARE NOT NWS OR FAA STATIONS...AND ARE NOT SUBJECT
    TO NWS AND FAA QUALITY CONTROL.

TXZ171-172-183>190-271200-
TEXAS HILL COUNTRY AND EDWARDS PLATEAU

CITY           SKY/WX    TMP DP  RH WIND       PRES   REMARKS
JUNCTION       CLEAR     76  63  64 CALM      29.82S
*LLANO         CLEAR     72  64  78 CALM      29.83S
BURNET         MOCLDY    75  64  68 CALM      29.82S
*HORSESHOE BAY CLEAR     72  63  74 CALM      29.79S
*KERRVILLE     CLEAR     71  65  81 SE5       29.83S
*FREDERICKSBRG CLEAR     70  60  70 W3        29.83S
*ROCKSPRINGS   CLEAR     72  63  73 SE13      29.89S
*BOERNE STAGE  CLEAR     68  64  88 CALM      29.83R
*CASTROVILLE   CLEAR     70  68  93 CALM      29.81R
HONDO          CLEAR     69  67  93 NE6       29.79S
*UVALDE        CLEAR     70  65  85 NE6       29.80R
DEL RIO        CLEAR     78  68  71 E7        29.76R
LAUGHLIN AFB   PTCLDY    76  68  76 SE8       29.77R
CARRIZO SPRGS  CLEAR     73  68  83 SE3       29.75S
*EAGLE PASS    SUNNY     77  66  69 SE6       29.77S
*FAITH RANCH   CLEAR     77  66  69 S8        29.76S
$$

TXZ173-191>194-202-209-217>225-228-271200-
CENTRAL AND SOUTH CENTRAL TEXAS

CITY           SKY/WX    TMP DP  RH WIND       PRES   REMARKS
GEORGETOWN     CLOUDY    75  65  70 E5        29.81R
AUSTIN/BERGSTM PTCLDY    73  69  87 SE7       29.79R
AUSTIN/MABRY   CLEAR     74  66  76 S3        29.79R
*AUSTIN/EXEC   PTCLDY    72  72 100 MISG      29.80R
*LAGO VISTA    CLEAR     76  64  65 W7        29.81S
SAN MARCOS     CLEAR     71  68  90 S6        29.80R
NEW BRAUNFELS  MOCLDY    71  69  93 S6        29.78R
RANDOLPH AFB   CLEAR     73  71  91 S3        29.79R
PT SAN ANTONIO CLEAR     71  68  90 CALM      29.77R
SAN ANTONIO    CLEAR     74  68  81 S3        29.79S
STINSON FIELD  CLEAR     73  70  90 CALM      29.77S
*LA GRANGE     CLOUDY    76  75  96 CALM      29.78S
*GIDDINGS      CLOUDY    71  69  95 SE3       29.81R FOG
*GONZALES      PTCLDY    74  74  99 CALM      29.78S
$$

TXZ163>164-176>182-195>201-210>213-226-227-235-271200-
SOUTHEAST TEXAS

CITY           SKY/WX    TMP DP  RH WIND       PRES   REMARKS
COLLEGE STN    MOCLDY    74  70  87 SE6       29.80S
*BRYAN         MOCLDY    72  72 100 CALM      29.82S
*CALDWELL      CLOUDY    74  73  96 S5        29.81S
*CROCKETT      CLEAR     66  64  94 CALM      29.84R
*BRENHAM       CLOUDY    73  69  86 CALM      29.81R
HUNTSVILLE     CLEAR     70  66  87 CALM      29.81R
CONROE         CLEAR     66  66 100 CALM      29.81R
HOUSTON BUSH   FAIR      69  69 100 CALM      29.80R
HOUSTON HOBBY  FAIR      70  70 100 CALM      29.79R
*HOUSTON SW AP FAIR      65  65  99 CALM      29.80S
PEARLAND       FAIR      70  69  97 CALM      29.81R
HOUSTON HOOKS  FAIR      70  69  97 CALM      29.80R
ELLINGTON FLD  PTCLDY    70  68  94 CALM      29.81R
SUGAR LAND     FAIR      72  68  87 CALM      29.79R
*HOUSTON EXEC    N/A     70  68  94 CALM      29.81R
*CLEVELAND MUN FAIR      65  64  96 CALM      29.82R FOG
*WHARTON       PTCLDY    70  68  95 CALM      29.80R FOG
*COLUMBUS      CLOUDY    73  71  95 CALM      29.80S
*EAGLE LAKE    CLOUDY    72  71  96 CALM      29.80R
$$

TXZ214>216-236>238-271200-
THE UPPER TEXAS COAST

CITY           SKY/WX    TMP DP  RH WIND       PRES   REMARKS
*ORANGE        FOG       69  69 100 CALM      29.82S VSB 1
PORT ARTHUR    FAIR      71  70  96 CALM      29.79R
GALVESTON      FAIR      79  75  87 SW3       29.80R
ANGLETON       FAIR      70  67  90 CALM      29.79R
*BAY CITY      CLEAR     71  71 100 CALM      29.79R
PALACIOS       PTCLDY    81  76  84 S8        29.77S
$$

TXZ229>234-239>247-271200-
TEXAS COASTAL BEND AND RIO GRANDE PLAINS

CITY           SKY/WX    TMP DP  RH WIND       PRES   REMARKS
VICTORIA       PTCLDY    72  71  97 CALM      29.79R FOG
*BEEVILLE      CLOUDY    73  73  99 S3        29.78R
ROCKPORT       CLEAR     78  73  84 S6        29.77R
*PORT ARANSAS    N/A    N/A N/A N/A MISG        N/A
*PORT LAVACA   CLEAR     73  71  93 S5        29.78R
*INGLESIDE     CLEAR     78  73  84 S6        29.76S
CORPUS CHRISTI MOCLDY    73  73 100 S3        29.76R
CORPUS NAS     CLEAR     79  75  87 S9        29.76R
*ROBSTOWN      CLEAR     73  72  97 SE3       29.77S
ALICE          CLEAR     73  72  96 S6        29.76R
KINGSVILLE NAS CLEAR     74  72  93 S8        29.75S
COTULLA        CLEAR     74  70  87 E3        29.76R
LAREDO         CLEAR     77  71  82 S12       29.75F
$$

TXZ248>255-271200-
DEEP SOUTH TEXAS

CITY           SKY/WX    TMP DP  RH WIND       PRES   REMARKS
BROWNSVILLE    FAIR      75  74  96 SE5       29.77R
PORT ISABEL    FAIR      76  71  85 SE3       29.77R
*SOUTH PADRE   NOT AVBL
HARLINGEN      CLEAR     71  71 100 SE6       29.76R
*HEBBRONVILLE  CLEAR     72  70  94 CALM      29.78S
MCALLEN        CLEAR     77  75  93 SE7       29.76S
*WESLACO       NOT AVBL
FALFURRIAS       N/A     74  72  93 S5        29.76S VSB<1/4
EDINBURG       FAIR      75  72  89 CALM      29.77R
*ZAPATA        FAIR      75  73  91 SE6       29.74F
$$

TXZ213>215-236>238-242>244-246-247-251-254-255-271200-
CMAN STATIONS

STATION/POSITION TIME  TEMP    WIND        PRES    WAVE
                       AIR SEA DIR/SP/G            HT/PER
                 (UTC) (F)     (DEG/KT/KT) (MB)    (FT/S)
SABINE PASS      1048   77 87  200/  2/  3 1010.4
SEA RIM ST PARK  1100   76     340/  4/  5 1009.5
NORTH JETTY/GLS  1048   80 83  220/  6/  7 1008.2
EAGLE POINT      1048   75 86  280/  2/  4 1008.8
MORGANS POINT    1048   76 83  220/  1/  2 1008.8
PORT O`CONNOR    1048   79 84  200/  8/ 10 1007.9
PORT ARANSAS     1100   80 84  170/ 14/ 15 1007.9
MALAQUITE BEACH  1048   80 84  160/ 16/ 17 1007.2
BAFFIN BAY       1048   79 83  180/ 12/ 14 1007.9
PORT ISABEL      1048   78 85  170/  4/  6 1008.2
$$




USA.gov is the U.S. government's official web portal to all federal, state and local government web resources and services.